This is the latest recevied weather packets stored in our database for station/object KD9CCP. If no packets are shown the sender has not sent any weather packets the latest 10 day(s).
| Time | Temp. | Humidity | Pressure | Rain* | Wind** | Luminosity | Snow |
|---|---|---|---|---|---|---|---|
| 1778163093 | 3.89° C | 69% | 1013.4 hPa | 0 mm | - | 33 W/m² | - |
| 1778162789 | 3.89° C | 71% | 1013.3 hPa | 0 mm | - | 39 W/m² | - |
| 1778162487 | 3.89° C | 73% | 1013.6 hPa | 0 mm | - | 39 W/m² | - |
| 1778162183 | 3.33° C | 71% | 1013.6 hPa | 0 mm | - | 36 W/m² | - |
| 1778161881 | 3.89° C | 70% | 1013.7 hPa | 0 mm | - | 44 W/m² | - |
| 1778161577 | 3.89° C | 70% | 1013.5 hPa | 0 mm | - | 44 W/m² | - |
| 1778161273 | 3.89° C | 72% | 1013.6 hPa | 0 mm | - | 43 W/m² | - |
| 1778160969 | 3.33° C | 70% | 1013.2 hPa | 0 mm | - | 40 W/m² | - |
| 1778160667 | 3.33° C | 71% | 1013.6 hPa | 0 mm | - | 42 W/m² | - |
| 1778160363 | 3.33° C | 73% | 1013.6 hPa | 0 mm | - | 40 W/m² | - |
| 1778160060 | 3.33° C | 73% | 1013.5 hPa | 0 mm | - | 42 W/m² | - |
| 1778159757 | 3.33° C | 75% | 1013.7 hPa | 0 mm | - | 39 W/m² | - |
| 1778159455 | 3.33° C | 73% | 1013.7 hPa | 0 mm | - | 38 W/m² | - |
| 1778159151 | 2.78° C | 72% | 1013.4 hPa | 0 mm | - | 35 W/m² | - |
| 1778158849 | 2.78° C | 75% | 1013.4 hPa | 0 mm | - | 34 W/m² | - |
| 1778158548 | 2.78° C | 75% | 1013.5 hPa | 0 mm | - | 31 W/m² | - |
| 1778158244 | 2.78° C | 72% | 1013.7 hPa | 0 mm | - | 30 W/m² | - |
| 1778157941 | 2.78° C | 75% | 1013.6 hPa | 0 mm | - | 28 W/m² | - |
| 1778157639 | 2.78° C | 73% | 1013.5 hPa | 0 mm | - | 24 W/m² | - |
| 1778157337 | 2.78° C | 74% | 1013.6 hPa | 0 mm | - | 21 W/m² | - |
| 1778157033 | 2.78° C | 73% | 1013.6 hPa | 0 mm | - | 20 W/m² | - |
| 1778156728 | 2.78° C | 74% | 1013.6 hPa | 0 mm | - | 18 W/m² | - |
| 1778156425 | 2.78° C | 73% | 1013.5 hPa | 0 mm | - | 17 W/m² | - |
| 1778156120 | 2.78° C | 74% | 1013.6 hPa | 0 mm | - | 16 W/m² | - |
| 1778155816 | 2.78° C | 78% | 1013.6 hPa | 0 mm | - | 14 W/m² | - |
* Rain latest hour (hover to see other rain measurements)
** Current wind speed in m/s (hover to see current wind gust speed)